Starlink 36561

operational
NORAD ID: 67537 Int'l Des: 2026-014 Owner: SPXS Country: US Constellation: starlink
LEOCIRCULARRETROGRADE

About Starlink 36561

Description loading...

Live Position

Loading 3D Globe...

Upcoming Passes

Altitude History

Altitude vs Time

uPlot chart will show altitude changes over time

Two-Line Element Set

1 67537U 26014F 26066.17770836 .00466615 00000-0 29126-2 0 9990
2 67537 97.2838 310.9186 0000965 71.0594 289.0776 15.75574326 8171
Epoch: Mar 7, 2026 • Age: 14 hours

Current Status

Altitude 366.0 km
Velocity 7.69 km/s
Sub-Earth Point -60.54°S, 96.59°E
Launch Date Jan 22, 2026
Age 0.1 years
Type internet

Technical Details

Classification Payload
Mass 575.00 kg
Dry Mass 530.00 kg
Total Mass 575.00 kg
Length 0.30 m
Diameter 4.10 m
Span 29.00 m
Shape Box + pan
Manufacturer SPXS
Bus Type Starlink V2MO
Phase Status In Orbit
Owner/State SPXS/US

Large Constellations

Loading constellations...